Погода в Лаукуве

Поиск расширенной информации на нашем сайте:

Полезная информация:

Новости сайта



02.01.2020
Опубликован Долгосрочный прогноз погоды по городам России и ближнего зарубежья на январь 2020 года.
Карты: Прогноз на январь и февраль 2020 года, Сравнение прогнозируемой аномалии приземной температуры воздуха на январь 2020 года по разным моделям.




Погода в Лаукуве - сегодня

Время (UTC), дата Ветер
(°,м/с) 
Видим.   Явления Облачность Т
(°С)
Тd
(°С)
f(%) Тe
(°С)
Pmin
(гПа)
dP
(гПа)
Po
(мм)
O2
(г/м3)
Тmin Tmax R s Состояние
почвы
03 04.08.20 080 (В) 3-4{06}  17000 м  слаб. дождь  10/5 800 м средняя 
[Sc|Ac As]
+14.8 +13.9 94 +22  1008.2  -1  741  281           
06 04.08.20 тихо () -1{04}  18000 м  в посл. час дождь  10/0 средняя 
[Ac As]
+15.3 +14.5 95 +23  1008.5  0.3  742  280  +14.8      влажная 
09 04.08.20 340 (С) 2-3{04}  19000 м  {дождь}  10/6 1000 м средняя 
[Sc|Ac As]
+16.7 +15.1 90 +27  1008.6  0.2  742  278           
12 04.08.20 280 (З) 2-4{04}  20000 м  {дождь}  10/10 450 м 
[Sc]
+17.6 +15.6 88 +28  1009.5  0.9  743  278      0.0     
15 04.08.20 320 (СЗ) 1-3{04}  10 км  слаб. дождь  10/10 120 м 
[Frnb|Ns]
+16.6 +16 96 +29  1009.9  0.4  743  279           
18 04.08.20 320 (СЗ) 3-4{06}  18000 м  слаб. дождь  10/10 210 м 
[Frnb|Ns]
+15.9 +15.2 96 +25  1011.4  1.4  744  280    +18.5     
21 04.08.20 290 (З) 1-3{06}  11000 м  в посл. час дождь  10/10 120 м 
[Frnb|Ns]
+15.5 +15 97 +26  1012.7  1.2  745  281           
00 05.08.20 280 (З) 2-3{05}  10 км  {дождь}  8/0 средняя, верхняя 
[Ac trans|Ci sp]
+13.8 +13.2 96 +20  1014.2  1.4  746  283      0.3     
03 05.08.20 220 (ЮЗ) 1-2{03}  0900 м  туман  ясно 
+11.7 +11.3 97 +16  1016.1  1.7  747  286           
06 05.08.20 270 (З) 2-5{05}  20000 м  {туман}  3/0 верхняя 
[Ci fib]
+15.6 +14.5 93 +24  1017.4  1.6  748  282  +11.2    0.3    влажная 
09 05.08.20 280 (З) 4-6{06}  19000 м    8/5 1000 м верхняя 
[Cu hum|Ci fib]
+18.8 +13.8 73 +26  1018.8  1.5  749  280           
12 05.08.20 290 (З) 4-7{08}  20000 м    6/3 1000 м верхняя 
[Cu hum|Ci sp]
+19.8 +9.9 53 +21  1019.8  1.2  750  280           
15 05.08.20 290 (З) 3-5{07}  20000 м    8/0 средняя, верхняя 
[Ac trans|Cs]
+18.1 +10.4 61 +21  1021.1  1.1  751  282           
18 05.08.20 тихо () -2{07}  20000 м    6/0 верхняя 
[Ci sp]
+16 +10.1 68 +17  1022  0.8  752  284    +20       
21 05.08.20 170 (Ю) 1-2{02}  20000 м    3/0 верхняя 
[Ci fib]
+10.8 +9.9 94 +13  1023.4  0.9  752  290           
00 06.08.20 180 (Ю) 1-2{02}  20000 м    3/0 верхняя 
[Ci fib]
+10.3 +9.6 95 +12  1024  0.6  753  291           
03 06.08.20 тихо () -2{03}  20000 м    3/0 средняя, верхняя 
[Ac trans|Ci fib]
+9.2 +8.2 93 +9  1025  0.9  754  292           
06 06.08.20 210 (ЮЗ) 2-4{04}  20000 м    3/0 средняя, верхняя 
[Ac trans|Ci fib]
+17.2 +8.8 58 +18  1025.7  1.2  754  284  +9        влажная 
09 06.08.20 240 (ЮЗ) 2-5{05}  20000 м    3/0 средняя, верхняя 
[Ac trans|Ci fib]
+21.4 +11.7 54 +25  1026.5  1.1  755  280           
12 06.08.20 тихо () -3{06}  19000 м    3/0 верхняя 
[Ci fib]
+23.9 +12.5 49 +28  1026.4  755  277           
15 06.08.20 тихо () -2{07}  20000 м    1/0 верхняя 
[Ci fib]
+24.5 +13.4 50 +30  1025.8  -0.5  755  277           
18 06.08.20 тихо () -0{02}  20000 м    1/0 верхняя 
[Ci fib]
+23 +14.8 60 +31  1026.1  0.2  755  278    +25       
21 06.08.20 тихо () -0{02}  20000 м    1/0 верхняя 
[Ci fib]
+16.3 +14 86 +23  1027.5  0.9  756  284           
00 07.08.20 070 (В) 3-4{04}  20000 м    1/0 верхняя 
[Ci fib]
+14.6 +12.1 85 +19  1027.9  0.3  756  287           
03 07.08.20 070 (В) 3-3{04}  20000 м    1/0 верхняя 
[Ci fib]
+14 +11.6 85 +17  1028.6  0.6  756  288           
Время (UTC), дата Ветер
(°,м/с) 
Видим.   Явления Облачность Т
(°С)
Тd
(°С)
f(%) Тe
(°С)
Pmin
(гПа)
dP
(гПа)
Po
(мм)
O2
(г/м3)
Тmin Tmax R s Состояние
почвы

Для получения пояснительной информации подведите курсор к названию столбца.

ПОГОДА в Лаукуве - архив

Всё, что Вы хотите узнать о погоде в Лаукуве - удобно и подробно!

Выберите нужную дату (начиная с 1 января 2019* года) и нажмите кнопку "Найти".
Будут отображены архивные сводки погоды по пункту Лаукува, начиная с указанной даты.


Отображать данные в формате CSV (для использования в таблицах Excel)


Внимание! Наш архив погоды предназначен исключительно для личного некоммерческого использования в познавательных целях. Если Вам необходимы официальные справки о состоянии погоды (для производственных, юридических, коммерческих и т.п. целей), обращайтесь в органы Росгидромета.

*Примечание: данная дата относится к архиву по метеостанциям СССР (Россия, СНГ, Балтия).
Архив по метеостанциям Зарубежной Европы и Азии (кроме Китая) хранится 10 дней, по другим регионам земного шара (Китай, Африка, Америка, Австралия, Океания) - 1 день.

Лаукува - район местоположения метеостанции


Название, широта, долгота, высота метеостанции:
Лаукува 55.6°ш. 22.2°д. 166 м над ур. моря [Литва]

Дополнительная информация

В oтличие oт бoльшинства пoгoдных сайтoв мы публикуем пoдрoбную метеoинфoрмацию в детальнoм прoфессиoнальнoм фoрмате.

Характеристики температуры и влажнoсти вoздуха измеряются на высoте 2 м в тени вдали oт зданий и деревьев.
Скoрoсть ветра измеряется на высoте 10 м (на урoвне рoста челoвека скoрoсть ветра ниже в 1.5-2 раза). Если метеoстанция нахoдится в гoрoде или в лесу, тo скoрoсть ветра занижена на 2-4 м/с пo сравнению с oткрытым местoм. Скoрoсть ветра над акватoриями крупных рек и oзёр, а также на вершинах хoлмoв на 2-5 м/с выше, чем в oбычных услoвиях.
Атмoсфернoе давление в разных тoчках местнoсти мoжет значительнo oтличаться oт давления на метеoстанции, в зависимoсти oт услoвий рельефа (при пoдъёме на 10 м давление пoнижается примернo на 1 мм рт.ст.).